• In Russia
  • List of Countries
  • For 7 days
  • Water Temperature
  • Satellite Maps
  • Weather Map
  • Weather Widgets
  • user-avatar
    Login

    Hourly Weather Gordovo

    Today, 21 June, Thursday

    Time Temperature Precipitation Wind Pressure Humidity
    00:00 +15°C° 0 mm 2 mps 746 mmHg 88%
    01:00 +14°C° 0 mm 2 mps 746 mmHg 90%
    02:00 +14°C° 0 mm 1 mps 746 mmHg 93%
    03:00 +14°C° 0 mm 1 mps 746 mmHg 92%
    04:00 +14°C° 0 mm 2 mps 746 mmHg 91%
    05:00 +14°C° 0 mm 2 mps 746 mmHg 89%
    06:00 +17°C° 0 mm 2 mps 746 mmHg 82%
    07:00 +19°C° 0 mm 2 mps 746 mmHg 75%
    08:00 +21°C° 0 mm 3 mps 746 mmHg 67%
    09:00 +22°C° 0 mm 3 mps 745 mmHg 62%
    10:00 +24°C° 0 mm 3 mps 745 mmHg 57%
    11:00 +26°C° 0 mm 3 mps 745 mmHg 52%
    12:00 +26°C° 0 mm 4 mps 744 mmHg 53%
    13:00 +26°C° 0 mm 4 mps 744 mmHg 53%
    14:00 +27°C° 0 mm 4 mps 743 mmHg 54%
    15:00 +27°C° 0 mm 3 mps 743 mmHg 56%
    16:00 +27°C° 0 mm 3 mps 742 mmHg 58%
    17:00 +27°C° 0 mm 3 mps 742 mmHg 60%
    18:00 +25°C° 0 mm 3 mps 742 mmHg 65%
    19:00 +24°C° 0 mm 3 mps 741 mmHg 70%
    20:00 +21°C° 0 mm 3 mps 741 mmHg 75%
    21:00 +21°C° 0 mm 3 mps 740 mmHg 75%
    22:00 +21°C° 0 mm 4 mps 740 mmHg 75%
    23:00 +21°C° 0 mm 4 mps 739 mmHg 75%

    Tomorrow, 22 June, Friday

    Time Temperature Precipitation Wind Pressure Humidity
    00:00 +21°C° 0.2 mm 4 mps 739 mmHg 79%
    01:00 +20°C° 0.2 mm 5 mps 738 mmHg 83%
    02:00 +20°C° 0.2 mm 5 mps 738 mmHg 87%
    03:00 +20°C° 0.4 mm 5 mps 737 mmHg 89%
    04:00 +20°C° 0.4 mm 5 mps 737 mmHg 92%
    05:00 +20°C° 0.4 mm 5 mps 737 mmHg 95%
    06:00 +20°C° 0.4 mm 5 mps 737 mmHg 94%
    07:00 +19°C° 0.4 mm 5 mps 738 mmHg 93%
    08:00 +19°C° 0.4 mm 5 mps 738 mmHg 92%
    09:00 +18°C° 0.5 mm 4 mps 739 mmHg 90%
    10:00 +17°C° 0.5 mm 4 mps 739 mmHg 88%
    11:00 +14°C° 0.5 mm 4 mps 739 mmHg 86%
    12:00 +16°C° 0.1 mm 3 mps 740 mmHg 84%
    13:00 +16°C° 0.1 mm 3 mps 740 mmHg 81%
    14:00 +17°C° 0.1 mm 2 mps 741 mmHg 78%
    15:00 +17°C° 0 mm 2 mps 741 mmHg 78%
    16:00 +17°C° 0 mm 2 mps 741 mmHg 78%
    17:00 +17°C° 0 mm 2 mps 742 mmHg 78%
    18:00 +16°C° 0 mm 2 mps 742 mmHg 78%
    19:00 +16°C° 0 mm 2 mps 742 mmHg 78%
    20:00 +15°C° 0 mm 2 mps 742 mmHg 78%
    21:00 +15°C° 0 mm 2 mps 742 mmHg 78%
    22:00 +14°C° 0 mm 1 mps 742 mmHg 78%
    23:00 +13°C° 0 mm 1 mps 743 mmHg 78%

    Day after tomorrow, 23 June, Saturday

    Time Temperature Precipitation Wind Pressure Humidity
    00:00 +13°C° 0 mm 1 mps 743 mmHg 77%
    01:00 +13°C° 0 mm 1 mps 743 mmHg 76%
    02:00 +13°C° 0 mm 1 mps 743 mmHg 75%
    03:00 +13°C° 0.2 mm 1 mps 743 mmHg 79%
    04:00 +13°C° 0.2 mm 1 mps 743 mmHg 82%
    05:00 +12°C° 0.2 mm 1 mps 742 mmHg 85%
    06:00 +13°C° 0.8 mm 1 mps 743 mmHg 86%
    07:00 +13°C° 0.8 mm 1 mps 743 mmHg 87%
    08:00 +13°C° 0.8 mm 1 mps 743 mmHg 88%
    09:00 +13°C° 0.5 mm 1 mps 743 mmHg 86%
    10:00 +13°C° 0.5 mm 1 mps 743 mmHg 85%
    11:00 +14°C° 0.5 mm 1 mps 743 mmHg 83%
    12:00 +14°C° 0.6 mm 1 mps 742 mmHg 84%
    13:00 +14°C° 0.6 mm 1 mps 742 mmHg 85%
    14:00 +14°C° 0.6 mm 1 mps 742 mmHg 86%
    15:00 +14°C° 0.4 mm 1 mps 742 mmHg 87%
    16:00 +14°C° 0.4 mm 1 mps 741 mmHg 88%
    17:00 +14°C° 0.4 mm 1 mps 741 mmHg 88%
    18:00 +13°C° 0.1 mm 1 mps 741 mmHg 91%
    19:00 +13°C° 0.1 mm 1 mps 741 mmHg 93%
    20:00 +12°C° 0.1 mm 1 mps 741 mmHg 95%
    21:00 +12°C° 0.2 mm 1 mps 740 mmHg 95%
    22:00 +12°C° 0.2 mm 2 mps 740 mmHg 95%
    23:00 +12°C° 0.2 mm 2 mps 740 mmHg 96%

    24 June, Sunday

    Time Temperature Precipitation Wind Pressure Humidity
    00:00 +12°C° 0.5 mm 2 mps 740 mmHg 96%
    01:00 +10°C° 0.5 mm 2 mps 740 mmHg 96%
    02:00 +10°C° 0.5 mm 2 mps 739 mmHg 96%
    03:00 +10°C° 1 mm 3 mps 739 mmHg 96%
    04:00 +11°C° 1 mm 3 mps 739 mmHg 96%
    05:00 +11°C° 1 mm 3 mps 739 mmHg 97%
    06:00 +11°C° 0.7 mm 3 mps 739 mmHg 95%
    07:00 +12°C° 0.7 mm 3 mps 740 mmHg 93%
    08:00 +12°C° 0.7 mm 3 mps 740 mmHg 92%
    09:00 +13°C° 0.6 mm 3 mps 740 mmHg 86%
    10:00 +14°C° 0.6 mm 3 mps 741 mmHg 80%
    11:00 +17°C° 0.6 mm 3 mps 741 mmHg 75%
    12:00 +18°C° 0.2 mm 3 mps 741 mmHg 69%
    13:00 +19°C° 0.2 mm 3 mps 742 mmHg 63%
    14:00 +20°C° 0.2 mm 3 mps 742 mmHg 57%
    15:00 +19°C° 0.5 mm 2 mps 743 mmHg 60%
    16:00 +19°C° 0.5 mm 2 mps 743 mmHg 64%
    17:00 +19°C° 0.5 mm 2 mps 743 mmHg 68%
    18:00 +17°C° 0.3 mm 2 mps 743 mmHg 74%
    19:00 +16°C° 0.3 mm 1 mps 743 mmHg 80%
    20:00 +14°C° 0.3 mm 1 mps 744 mmHg 86%
    21:00 +13°C° 0 mm 1 mps 744 mmHg 88%
    22:00 +13°C° 0 mm 2 mps 744 mmHg 91%
    23:00 +12°C° 0 mm 2 mps 744 mmHg 93%

    25 June, Monday

    Time Temperature Precipitation Wind Pressure Humidity
    00:00 +10°C° 0 mm 2 mps 745 mmHg 94%
    01:00 +10°C° 0 mm 2 mps 745 mmHg 94%
    02:00 +10°C° 0 mm 2 mps 745 mmHg 95%
    03:00 +10°C° 0 mm 2 mps 745 mmHg 95%
    04:00 +10°C° 0 mm 2 mps 745 mmHg 95%
    05:00 +10°C° 0 mm 2 mps 746 mmHg 95%
    06:00 +13°C° 0 mm 2 mps 746 mmHg 90%
    07:00 +14°C° 0 mm 2 mps 746 mmHg 85%
    08:00 +16°C° 0 mm 2 mps 747 mmHg 80%
    09:00 +17°C° 0.1 mm 3 mps 747 mmHg 73%
    10:00 +19°C° 0.1 mm 3 mps 747 mmHg 65%
    11:00 +20°C° 0.1 mm 3 mps 747 mmHg 58%
    12:00 +20°C° 0.6 mm 3 mps 747 mmHg 60%
    13:00 +20°C° 0.6 mm 3 mps 747 mmHg 62%
    14:00 +20°C° 0.6 mm 3 mps 747 mmHg 63%
    15:00 +20°C° 0.6 mm 3 mps 747 mmHg 66%
    16:00 +20°C° 0.6 mm 2 mps 747 mmHg 69%
    17:00 +20°C° 0.6 mm 2 mps 747 mmHg 71%
    18:00 +18°C° 0.2 mm 2 mps 747 mmHg 76%
    19:00 +18°C° 0.2 mm 1 mps 747 mmHg 80%
    20:00 +16°C° 0.2 mm 1 mps 747 mmHg 84%
    21:00 +15°C° 0 mm 1 mps 748 mmHg 87%
    22:00 +14°C° 0 mm 1 mps 748 mmHg 89%
    23:00 +13°C° 0 mm 1 mps 748 mmHg 91%

    26 June, Tuesday

    Time Temperature Precipitation Wind Pressure Humidity
    00:00 +13°C° 0 mm 1 mps 748 mmHg 92%
    01:00 +12°C° 0 mm 1 mps 748 mmHg 93%
    02:00 +12°C° 0 mm 1 mps 748 mmHg 94%
    03:00 +12°C° 0 mm 1 mps 748 mmHg 94%
    04:00 +12°C° 0 mm 1 mps 749 mmHg 94%
    05:00 +12°C° 0 mm 1 mps 749 mmHg 94%
    06:00 +14°C° 0 mm 1 mps 749 mmHg 88%
    07:00 +16°C° 0 mm 1 mps 749 mmHg 82%
    08:00 +19°C° 0 mm 1 mps 749 mmHg 76%
    09:00 +19°C° 0.1 mm 2 mps 749 mmHg 70%
    10:00 +20°C° 0.1 mm 2 mps 749 mmHg 63%
    11:00 +22°C° 0.1 mm 3 mps 749 mmHg 56%
    12:00 +22°C° 0.2 mm 3 mps 749 mmHg 55%
    13:00 +24°C° 0.2 mm 2 mps 749 mmHg 53%
    14:00 +24°C° 0.2 mm 2 mps 749 mmHg 52%
    15:00 +24°C° 0.1 mm 2 mps 749 mmHg 55%
    16:00 +23°C° 0.1 mm 1 mps 749 mmHg 58%
    17:00 +23°C° 0.1 mm 1 mps 749 mmHg 61%
    18:00 +22°C° 0.1 mm 1 mps 749 mmHg 67%
    19:00 +20°C° 0.1 mm 1 mps 749 mmHg 73%
    20:00 +19°C° 0.1 mm 1 mps 749 mmHg 78%
    21:00 +18°C° 0 mm 1 mps 750 mmHg 81%
    22:00 +18°C° 0 mm 1 mps 750 mmHg 84%
    23:00 +16°C° 0 mm 1 mps 750 mmHg 87%
    Show more